Location: Bronschhofen
(47.4788°N, 9.0353°E)
Time: 21:19:47
(UTC+00:00)

Cosmos 2074 Rocket - Pass Details

Date: 20 May 2022
Orbit: 968 x 985 km, 82.9° (Epoch: 01 July)

Event Time Altitude Azimuth Distance (km) Brightness Sun altitude
Rises 02:16:27 0° 348° (NNW) 3,697 7.6 -11.9°
Reaches altitude 10° 02:18:59 10° 346° (NNW) 2,747 6.8 -11.6°
Maximum altitude 02:25:11 63° 267° (W) 1,090 4.1 -10.8°
Drops below altitude 10° 02:31:22 10° 187° (S) 2,735 5.9 -10.1°
Enters shadow 02:33:05 - 185° (S) 3,376 6.4 -9.9°
